Year,Month,Day,Hour,Minute,Value (Times are PST for temperature in C)
2012,06,08,00,00,10.90
2012,06,08,00,01,10.90
2012,06,08,00,02,10.90
2012,06,08,00,03,10.90
2012,06,08,00,04,10.90
2012,06,08,00,05,10.90
2012,06,08,00,06,10.90
2012,06,08,00,07,10.90
2012,06,08,00,08,10.90
2012,06,08,00,09,10.90
2012,06,08,00,10,10.90
2012,06,08,00,11,10.90
2012,06,08,00,12,10.80
2012,06,08,00,13,10.80
2012,06,08,00,14,10.80
2012,06,08,00,15,10.80
2012,06,08,00,16,10.80
2012,06,08,00,17,10.80
2012,06,08,00,18,10.80
2012,06,08,00,19,10.80
2012,06,08,00,20,10.70
2012,06,08,00,21,10.70
2012,06,08,00,22,10.70
2012,06,08,00,23,10.70
2012,06,08,00,24,10.70
2012,06,08,00,25,10.70
2012,06,08,00,26,10.70
2012,06,08,00,27,10.70
2012,06,08,00,28,10.70
2012,06,08,00,29,10.70
2012,06,08,00,30,10.60
2012,06,08,00,31,10.60
2012,06,08,00,32,10.60
2012,06,08,00,33,10.60
2012,06,08,00,34,10.60
2012,06,08,00,35,10.60
2012,06,08,00,36,10.60
2012,06,08,00,37,10.60
2012,06,08,00,38,10.60
2012,06,08,00,39,10.60
2012,06,08,00,40,10.60
2012,06,08,00,41,10.60
2012,06,08,00,42,10.60
2012,06,08,00,43,10.60
2012,06,08,00,44,10.50
2012,06,08,00,45,10.50
2012,06,08,00,46,10.50
2012,06,08,00,47,10.40
2012,06,08,00,48,10.40
2012,06,08,00,49,10.40
2012,06,08,00,50,10.30
2012,06,08,00,51,10.30
2012,06,08,00,52,10.30
2012,06,08,00,53,10.30
2012,06,08,00,54,10.30
2012,06,08,00,55,10.30
2012,06,08,00,56,10.30
2012,06,08,00,57,10.30
2012,06,08,00,58,10.30
2012,06,08,00,59,10.30
2012,06,08,01,00,10.30
2012,06,08,01,01,10.30
2012,06,08,01,02,10.30
2012,06,08,01,03,10.30
2012,06,08,01,04,10.30
2012,06,08,01,05,10.30
2012,06,08,01,06,10.30
2012,06,08,01,07,10.30
2012,06,08,01,08,10.30
2012,06,08,01,09,10.30
2012,06,08,01,10,10.30
2012,06,08,01,11,10.30
2012,06,08,01,12,10.20
2012,06,08,01,13,10.20
2012,06,08,01,14,10.20
2012,06,08,01,15,10.20
2012,06,08,01,16,10.20
2012,06,08,01,17,10.20
2012,06,08,01,18,10.20
2012,06,08,01,19,10.20
2012,06,08,01,20,10.20
2012,06,08,01,21,10.20
2012,06,08,01,22,10.20
2012,06,08,01,23,10.20
2012,06,08,01,24,10.20
2012,06,08,01,25,10.20
2012,06,08,01,26,10.20
2012,06,08,01,27,10.20
2012,06,08,01,28,10.20
2012,06,08,01,29,10.20
2012,06,08,01,30,10.20
2012,06,08,01,31,10.20
2012,06,08,01,32,10.20
2012,06,08,01,33,10.20
2012,06,08,01,34,10.20
2012,06,08,01,35,10.20
2012,06,08,01,36,10.20
2012,06,08,01,37,10.20
2012,06,08,01,38,10.20
2012,06,08,01,39,10.30
2012,06,08,01,40,10.20
2012,06,08,01,41,10.20
2012,06,08,01,42,10.20
2012,06,08,01,43,10.20
2012,06,08,01,44,10.20
2012,06,08,01,45,10.20
2012,06,08,01,46,10.20
2012,06,08,01,47,10.20
2012,06,08,01,48,10.20
2012,06,08,01,49,10.20
2012,06,08,01,50,10.20
2012,06,08,01,51,10.20
2012,06,08,01,52,10.20
2012,06,08,01,53,10.20
2012,06,08,01,54,10.20
2012,06,08,01,55,10.20
2012,06,08,01,56,10.20
2012,06,08,01,57,10.20
2012,06,08,01,58,10.20
2012,06,08,01,59,10.20
2012,06,08,02,00,10.20
2012,06,08,02,01,10.20
2012,06,08,02,02,10.10
2012,06,08,02,03,10.10
2012,06,08,02,04,10.10
2012,06,08,02,05,10.10
2012,06,08,02,06,10.10
2012,06,08,02,07,10.10
2012,06,08,02,08,10.10
2012,06,08,02,09,10.00
2012,06,08,02,10,10.00
2012,06,08,02,11,10.00
2012,06,08,02,12,10.00
2012,06,08,02,13,10.00
2012,06,08,02,14,10.00
2012,06,08,02,15,10.00
2012,06,08,02,16,10.00
2012,06,08,02,17,10.00
2012,06,08,02,18,9.90
2012,06,08,02,19,9.90
2012,06,08,02,20,9.90
2012,06,08,02,21,9.90
2012,06,08,02,22,9.90
2012,06,08,02,23,9.90
2012,06,08,02,24,9.90
2012,06,08,02,25,9.90
2012,06,08,02,26,9.90
2012,06,08,02,27,9.90
2012,06,08,02,28,9.90
2012,06,08,02,29,9.90
2012,06,08,02,30,9.90
2012,06,08,02,31,9.90
2012,06,08,02,32,9.90
2012,06,08,02,33,9.90
2012,06,08,02,34,9.90
2012,06,08,02,35,9.80
2012,06,08,02,36,9.80
2012,06,08,02,37,9.80
2012,06,08,02,38,9.80
2012,06,08,02,39,9.80
2012,06,08,02,40,9.80
2012,06,08,02,41,9.80
2012,06,08,02,42,9.80
2012,06,08,02,43,9.80
2012,06,08,02,44,9.80
2012,06,08,02,45,9.80
2012,06,08,02,46,9.80
2012,06,08,02,47,9.80
2012,06,08,02,48,9.80
2012,06,08,02,49,9.80
2012,06,08,02,50,9.80
2012,06,08,02,51,9.80
2012,06,08,02,52,9.80
2012,06,08,02,53,9.70
2012,06,08,02,54,9.70
2012,06,08,02,55,9.70
2012,06,08,02,56,9.70
2012,06,08,02,57,9.70
2012,06,08,02,58,9.70
2012,06,08,02,59,9.70
2012,06,08,03,00,9.70
2012,06,08,03,01,9.70
2012,06,08,03,02,9.70
2012,06,08,03,03,9.60
2012,06,08,03,04,9.60
2012,06,08,03,05,9.60
2012,06,08,03,06,9.60
2012,06,08,03,07,9.60
2012,06,08,03,08,9.60
2012,06,08,03,09,9.60
2012,06,08,03,10,9.60
2012,06,08,03,11,9.60
2012,06,08,03,12,9.60
2012,06,08,03,13,9.60
2012,06,08,03,14,9.60
2012,06,08,03,15,9.60
2012,06,08,03,16,9.60
2012,06,08,03,17,9.60
2012,06,08,03,18,9.60
2012,06,08,03,19,9.60
2012,06,08,03,20,9.60
2012,06,08,03,21,9.60
2012,06,08,03,22,9.60
2012,06,08,03,23,9.60
2012,06,08,03,24,9.60
2012,06,08,03,25,9.60
2012,06,08,03,26,9.60
2012,06,08,03,27,9.60
2012,06,08,03,28,9.60
2012,06,08,03,29,9.60
2012,06,08,03,30,9.50
2012,06,08,03,31,9.50
2012,06,08,03,32,9.50
2012,06,08,03,33,9.50
2012,06,08,03,34,9.50
2012,06,08,03,35,9.40
2012,06,08,03,36,9.40
2012,06,08,03,37,9.40
2012,06,08,03,38,9.40
2012,06,08,03,39,9.40
2012,06,08,03,40,9.40
2012,06,08,03,41,9.40
2012,06,08,03,42,9.40
2012,06,08,03,43,9.40
2012,06,08,03,44,9.40
2012,06,08,03,45,9.40
2012,06,08,03,46,9.30
2012,06,08,03,47,9.30
2012,06,08,03,48,9.30
2012,06,08,03,49,9.30
2012,06,08,03,50,9.30
2012,06,08,03,51,9.30
2012,06,08,03,52,9.30
2012,06,08,03,53,9.30
2012,06,08,03,54,9.30
2012,06,08,03,55,9.30
2012,06,08,03,56,9.30
2012,06,08,03,57,9.30
2012,06,08,03,58,9.30
2012,06,08,03,59,9.30
2012,06,08,04,00,9.30
2012,06,08,04,01,9.30
2012,06,08,04,02,9.30
2012,06,08,04,03,9.30
2012,06,08,04,04,9.30
2012,06,08,04,05,9.30
2012,06,08,04,06,9.30
2012,06,08,04,07,9.30
2012,06,08,04,08,9.30
2012,06,08,04,09,9.30
2012,06,08,04,10,9.30
2012,06,08,04,11,9.30
2012,06,08,04,12,9.30
2012,06,08,04,13,9.30
2012,06,08,04,14,9.30
2012,06,08,04,15,9.30
2012,06,08,04,16,9.30
2012,06,08,04,17,9.30
2012,06,08,04,18,9.30
2012,06,08,04,19,9.30
2012,06,08,04,20,9.30
2012,06,08,04,21,9.30
2012,06,08,04,22,9.30
2012,06,08,04,23,9.30
2012,06,08,04,24,9.30
2012,06,08,04,25,9.30
2012,06,08,04,26,9.30
2012,06,08,04,27,9.30
2012,06,08,04,28,9.30
2012,06,08,04,29,9.30
2012,06,08,04,30,9.30
2012,06,08,04,31,9.30
2012,06,08,04,32,9.30
2012,06,08,04,33,9.30
2012,06,08,04,34,9.30
2012,06,08,04,35,9.30
2012,06,08,04,36,9.20
2012,06,08,04,37,9.20
2012,06,08,04,38,9.20
2012,06,08,04,39,9.20
2012,06,08,04,40,9.20
2012,06,08,04,41,9.20
2012,06,08,04,42,9.20
2012,06,08,04,43,9.20
2012,06,08,04,44,9.20
2012,06,08,04,45,9.20
2012,06,08,04,46,9.20
2012,06,08,04,47,9.20
2012,06,08,04,48,9.20
2012,06,08,04,49,9.20
2012,06,08,04,50,9.20
2012,06,08,04,51,9.20
2012,06,08,04,52,9.20
2012,06,08,04,53,9.20
2012,06,08,04,54,9.20
2012,06,08,04,55,9.20
2012,06,08,04,56,9.20
2012,06,08,04,57,9.20
2012,06,08,04,58,9.20
2012,06,08,04,59,9.20
2012,06,08,05,00,9.20
2012,06,08,05,01,9.20
2012,06,08,05,02,9.20
2012,06,08,05,03,9.20
2012,06,08,05,04,9.20
2012,06,08,05,05,9.20
2012,06,08,05,06,9.20
2012,06,08,05,07,9.20
2012,06,08,05,08,9.20
2012,06,08,05,09,9.20
2012,06,08,05,10,9.20
2012,06,08,05,11,9.20
2012,06,08,05,12,9.20
2012,06,08,05,13,9.20
2012,06,08,05,14,9.20
2012,06,08,05,15,9.10
2012,06,08,05,16,9.10
2012,06,08,05,17,9.10
2012,06,08,05,18,9.10
2012,06,08,05,19,9.10
2012,06,08,05,20,9.10
2012,06,08,05,21,9.10
2012,06,08,05,22,9.10
2012,06,08,05,23,9.10
2012,06,08,05,24,9.20
2012,06,08,05,25,9.10
2012,06,08,05,26,9.10
2012,06,08,05,27,9.10
2012,06,08,05,28,9.10
2012,06,08,05,29,9.10
2012,06,08,05,30,9.10
2012,06,08,05,31,9.10
2012,06,08,05,32,9.10
2012,06,08,05,33,9.10
2012,06,08,05,34,9.10
2012,06,08,05,35,9.10
2012,06,08,05,36,9.10
2012,06,08,05,37,9.10
2012,06,08,05,38,9.10
2012,06,08,05,39,9.10
2012,06,08,05,40,9.10
2012,06,08,05,41,9.10
2012,06,08,05,42,9.10
2012,06,08,05,43,9.10
2012,06,08,05,44,9.10
2012,06,08,05,45,9.10
2012,06,08,05,46,9.00
2012,06,08,05,47,9.00
2012,06,08,05,48,9.00
2012,06,08,05,49,9.00
2012,06,08,05,50,9.00
2012,06,08,05,51,9.00
2012,06,08,05,52,9.00
2012,06,08,05,53,9.00
2012,06,08,05,54,9.00
2012,06,08,05,55,9.00
2012,06,08,05,56,9.00
2012,06,08,05,57,9.00
2012,06,08,05,58,9.00
2012,06,08,05,59,9.00
2012,06,08,06,00,9.00
2012,06,08,06,01,9.00
2012,06,08,06,02,9.00
2012,06,08,06,03,9.00
2012,06,08,06,04,9.00
2012,06,08,06,05,9.00
2012,06,08,06,06,9.00
2012,06,08,06,07,9.00
2012,06,08,06,08,9.00
2012,06,08,06,09,9.00
2012,06,08,06,10,9.00
2012,06,08,06,11,9.00
2012,06,08,06,12,9.10
2012,06,08,06,13,9.10
2012,06,08,06,14,9.10
2012,06,08,06,15,9.10
2012,06,08,06,16,9.10
2012,06,08,06,17,9.10
2012,06,08,06,18,9.10
2012,06,08,06,19,9.10
2012,06,08,06,20,9.10
2012,06,08,06,21,9.10
2012,06,08,06,22,9.20
2012,06,08,06,23,9.20
2012,06,08,06,24,9.20
2012,06,08,06,25,9.20
2012,06,08,06,26,9.20
2012,06,08,06,27,9.20
2012,06,08,06,28,9.20
2012,06,08,06,29,9.20
2012,06,08,06,30,9.20
2012,06,08,06,31,9.20
2012,06,08,06,32,9.20
2012,06,08,06,33,9.20
2012,06,08,06,34,9.20
2012,06,08,06,35,9.20
2012,06,08,06,36,9.20
2012,06,08,06,37,9.20
2012,06,08,06,38,9.20
2012,06,08,06,39,9.20
2012,06,08,06,40,9.20
2012,06,08,06,41,9.20
2012,06,08,06,42,9.20
2012,06,08,06,43,9.20
2012,06,08,06,44,9.20
2012,06,08,06,45,9.20
2012,06,08,06,46,9.20
2012,06,08,06,47,9.20
2012,06,08,06,48,9.20
2012,06,08,06,49,9.20
2012,06,08,06,50,9.30
2012,06,08,06,51,9.30
2012,06,08,06,52,9.30
2012,06,08,06,53,9.30
2012,06,08,06,54,9.30
2012,06,08,06,55,9.40
2012,06,08,06,56,9.40
2012,06,08,06,57,9.50
2012,06,08,06,58,9.50
2012,06,08,06,59,9.60
2012,06,08,07,00,9.60
2012,06,08,07,01,9.60
2012,06,08,07,02,9.60
2012,06,08,07,03,9.60
2012,06,08,07,04,9.60
2012,06,08,07,05,9.60
2012,06,08,07,06,9.70
2012,06,08,07,07,9.70
2012,06,08,07,08,9.70
2012,06,08,07,09,9.70
2012,06,08,07,10,9.70
2012,06,08,07,11,9.70
2012,06,08,07,12,9.70
2012,06,08,07,13,9.70
2012,06,08,07,14,9.70
2012,06,08,07,15,9.70
2012,06,08,07,16,9.70
2012,06,08,07,17,9.70
2012,06,08,07,18,9.70
2012,06,08,07,19,9.70
2012,06,08,07,20,9.70
2012,06,08,07,21,9.70
2012,06,08,07,22,9.70
2012,06,08,07,23,9.70
2012,06,08,07,24,9.70
2012,06,08,07,25,9.70
2012,06,08,07,26,9.70
2012,06,08,07,27,9.70
2012,06,08,07,28,9.70
2012,06,08,07,29,9.70
2012,06,08,07,30,9.80
2012,06,08,07,31,9.80
2012,06,08,07,32,9.80
2012,06,08,07,33,9.80
2012,06,08,07,34,9.80
2012,06,08,07,35,9.90
2012,06,08,07,36,9.90
2012,06,08,07,37,9.90
2012,06,08,07,38,9.90
2012,06,08,07,39,9.90
2012,06,08,07,40,10.00
2012,06,08,07,41,10.00
2012,06,08,07,42,10.10
2012,06,08,07,43,10.10
2012,06,08,07,44,10.10
2012,06,08,07,45,10.20
2012,06,08,07,46,10.20
2012,06,08,07,47,10.20
2012,06,08,07,48,10.20
2012,06,08,07,49,10.30
2012,06,08,07,50,10.30
2012,06,08,07,51,10.30
2012,06,08,07,52,10.30
2012,06,08,07,53,10.30
2012,06,08,07,54,10.30
2012,06,08,07,55,10.30
2012,06,08,07,56,10.30
2012,06,08,07,57,10.30
2012,06,08,07,58,10.30
2012,06,08,07,59,10.20
2012,06,08,08,00,10.20
2012,06,08,08,01,10.20
2012,06,08,08,02,10.20
2012,06,08,08,03,10.20
2012,06,08,08,04,10.20
2012,06,08,08,05,10.20
2012,06,08,08,06,10.20
2012,06,08,08,07,10.20
2012,06,08,08,08,10.10
2012,06,08,08,09,10.10
2012,06,08,08,10,10.10
2012,06,08,08,11,10.10
2012,06,08,08,12,10.10
2012,06,08,08,13,10.20
2012,06,08,08,14,10.20
2012,06,08,08,15,10.20
2012,06,08,08,16,10.20
2012,06,08,08,17,10.20
2012,06,08,08,18,10.20
2012,06,08,08,19,10.20
2012,06,08,08,20,10.20
2012,06,08,08,21,10.20
2012,06,08,08,22,10.20
2012,06,08,08,23,10.20
2012,06,08,08,24,10.20
2012,06,08,08,25,10.20
2012,06,08,08,26,10.10
2012,06,08,08,27,10.10
2012,06,08,08,28,10.00
2012,06,08,08,29,10.00
2012,06,08,08,30,10.00
2012,06,08,08,31,9.90
2012,06,08,08,32,9.90
2012,06,08,08,33,9.90
2012,06,08,08,34,9.90
2012,06,08,08,35,9.90
2012,06,08,08,36,9.80
2012,06,08,08,37,9.80
2012,06,08,08,38,9.80
2012,06,08,08,39,9.80
2012,06,08,08,40,9.80
2012,06,08,08,41,9.70
2012,06,08,08,42,9.70
2012,06,08,08,43,9.70
2012,06,08,08,44,9.70
2012,06,08,08,45,9.60
2012,06,08,08,46,9.60
2012,06,08,08,47,9.60
2012,06,08,08,48,9.50
2012,06,08,08,49,9.50
2012,06,08,08,50,9.40
2012,06,08,08,51,9.40
2012,06,08,08,52,9.40
2012,06,08,08,53,9.40
2012,06,08,08,54,9.40
2012,06,08,08,55,9.40
2012,06,08,08,56,9.40
2012,06,08,08,57,9.40
2012,06,08,08,58,9.40
2012,06,08,08,59,9.40
2012,06,08,09,00,9.40
2012,06,08,09,01,9.40
2012,06,08,09,02,9.30
2012,06,08,09,03,9.30
2012,06,08,09,04,9.30
2012,06,08,09,05,9.30
2012,06,08,09,06,9.30
2012,06,08,09,07,9.30
2012,06,08,09,08,9.30
2012,06,08,09,09,9.30
2012,06,08,09,10,9.30
2012,06,08,09,11,9.30
2012,06,08,09,12,9.30
2012,06,08,09,13,9.30
2012,06,08,09,14,9.30
2012,06,08,09,15,9.30
2012,06,08,09,16,9.30
2012,06,08,09,17,9.30
2012,06,08,09,18,9.40
2012,06,08,09,19,9.40
2012,06,08,09,20,9.40
2012,06,08,09,21,9.40
2012,06,08,09,22,9.40
2012,06,08,09,23,9.40
2012,06,08,09,24,9.40
2012,06,08,09,25,9.40
2012,06,08,09,26,9.50
2012,06,08,09,27,9.50
2012,06,08,09,28,9.50
2012,06,08,09,29,9.50
2012,06,08,09,30,9.60
2012,06,08,09,31,9.60
2012,06,08,09,32,9.60
2012,06,08,09,33,9.60
2012,06,08,09,34,9.60
2012,06,08,09,35,9.70
2012,06,08,09,36,9.70
2012,06,08,09,37,9.70
2012,06,08,09,38,9.80
2012,06,08,09,39,9.80
2012,06,08,09,40,9.90
2012,06,08,09,41,9.90
2012,06,08,09,42,9.90
2012,06,08,09,43,9.90
2012,06,08,09,44,10.00
2012,06,08,09,45,10.00
2012,06,08,09,46,10.00
2012,06,08,09,47,10.00
2012,06,08,09,48,10.00
2012,06,08,09,49,10.00
2012,06,08,09,50,10.00
2012,06,08,09,51,10.00
2012,06,08,09,52,10.00
2012,06,08,09,53,10.10
2012,06,08,09,54,10.00
2012,06,08,09,55,10.00
2012,06,08,09,56,10.00
2012,06,08,09,57,10.00
2012,06,08,09,58,10.10
2012,06,08,09,59,10.10
2012,06,08,10,00,10.10
2012,06,08,10,01,10.10
2012,06,08,10,02,10.10
2012,06,08,10,03,10.10
2012,06,08,10,04,10.10
2012,06,08,10,05,10.10
2012,06,08,10,06,10.10
2012,06,08,10,07,10.10
2012,06,08,10,08,10.10
2012,06,08,10,09,10.10
2012,06,08,10,10,10.10
2012,06,08,10,11,10.20
2012,06,08,10,12,10.20
2012,06,08,10,13,10.20
2012,06,08,10,14,10.20
2012,06,08,10,15,10.30
2012,06,08,10,16,10.30
2012,06,08,10,17,10.30
2012,06,08,10,18,10.30
2012,06,08,10,19,10.30
2012,06,08,10,20,10.40
2012,06,08,10,21,10.40
2012,06,08,10,22,10.50
2012,06,08,10,23,10.50
2012,06,08,10,24,10.60
2012,06,08,10,25,10.70
2012,06,08,10,26,10.80
2012,06,08,10,27,10.90
2012,06,08,10,28,11.00
2012,06,08,10,29,11.10
2012,06,08,10,30,11.20
2012,06,08,10,31,11.40
2012,06,08,10,32,11.50
2012,06,08,10,33,11.60
2012,06,08,10,34,11.70
2012,06,08,10,35,11.70
2012,06,08,10,36,11.70
2012,06,08,10,37,11.80
2012,06,08,10,38,11.90
2012,06,08,10,39,12.00
2012,06,08,10,40,12.10
2012,06,08,10,41,12.20
2012,06,08,10,42,12.30
2012,06,08,10,43,12.30
2012,06,08,10,44,12.40
2012,06,08,10,45,12.40
2012,06,08,10,46,12.50
2012,06,08,10,47,12.60
2012,06,08,10,48,12.70
2012,06,08,10,49,12.70
2012,06,08,10,50,12.80
2012,06,08,10,51,12.80
2012,06,08,10,52,12.80
2012,06,08,10,53,12.90
2012,06,08,10,54,12.90
2012,06,08,10,55,12.90
2012,06,08,10,56,12.90
2012,06,08,10,57,12.90
2012,06,08,10,58,12.90
2012,06,08,10,59,12.90
2012,06,08,11,00,12.90
2012,06,08,11,01,12.90
2012,06,08,11,02,12.80
2012,06,08,11,03,12.90
2012,06,08,11,04,13.00
2012,06,08,11,05,13.00
2012,06,08,11,06,13.10
2012,06,08,11,07,13.20
2012,06,08,11,08,13.30
2012,06,08,11,09,13.30
2012,06,08,11,10,13.40
2012,06,08,11,11,13.50
2012,06,08,11,12,13.60
2012,06,08,11,13,13.70
2012,06,08,11,14,13.70
2012,06,08,11,15,13.70
2012,06,08,11,16,13.70
2012,06,08,11,17,13.70
2012,06,08,11,18,13.70
2012,06,08,11,19,13.70
2012,06,08,11,20,13.70
2012,06,08,11,21,13.70
2012,06,08,11,22,13.70
2012,06,08,11,23,13.70
2012,06,08,11,24,13.80
2012,06,08,11,25,13.80
2012,06,08,11,26,13.80
2012,06,08,11,27,13.80
2012,06,08,11,28,13.80
2012,06,08,11,29,13.90
2012,06,08,11,30,13.90
2012,06,08,11,31,13.90
2012,06,08,11,32,14.00
2012,06,08,11,33,14.10
2012,06,08,11,34,14.10
2012,06,08,11,35,14.10
2012,06,08,11,36,14.10
2012,06,08,11,37,14.10
2012,06,08,11,38,14.10
2012,06,08,11,39,14.00
2012,06,08,11,40,13.90
2012,06,08,11,41,13.90
2012,06,08,11,42,13.80
2012,06,08,11,43,13.80
2012,06,08,11,44,13.70
2012,06,08,11,45,13.60
2012,06,08,11,46,13.60
2012,06,08,11,47,13.60
2012,06,08,11,48,13.50
2012,06,08,11,49,13.50
2012,06,08,11,50,13.40
2012,06,08,11,51,13.40
2012,06,08,11,52,13.30
2012,06,08,11,53,13.30
2012,06,08,11,54,13.30
2012,06,08,11,55,13.30
2012,06,08,11,56,13.30
2012,06,08,11,57,13.30
2012,06,08,11,58,13.30
2012,06,08,11,59,13.30
2012,06,08,12,00,13.20
2012,06,08,12,01,13.20
2012,06,08,12,02,13.20
2012,06,08,12,03,13.20
2012,06,08,12,04,13.20
2012,06,08,12,05,13.20
2012,06,08,12,06,13.20
2012,06,08,12,07,13.20
2012,06,08,12,08,13.20
2012,06,08,12,09,13.20
2012,06,08,12,10,13.20
2012,06,08,12,11,13.10
2012,06,08,12,12,13.10
2012,06,08,12,13,13.10
2012,06,08,12,14,13.10
2012,06,08,12,15,13.10
2012,06,08,12,16,13.20
2012,06,08,12,17,13.20
2012,06,08,12,18,13.20
2012,06,08,12,19,13.20
2012,06,08,12,20,13.20
2012,06,08,12,21,13.20
2012,06,08,12,22,13.20
2012,06,08,12,23,13.20
2012,06,08,12,24,13.20
2012,06,08,12,25,13.30
2012,06,08,12,26,13.30
2012,06,08,12,27,13.30
2012,06,08,12,28,13.30
2012,06,08,12,29,13.30
2012,06,08,12,30,13.30
2012,06,08,12,31,13.30
2012,06,08,12,32,13.30
2012,06,08,12,33,13.40
2012,06,08,12,34,13.30
2012,06,08,12,35,13.40
2012,06,08,12,36,13.30
2012,06,08,12,37,13.30
2012,06,08,12,38,13.30
2012,06,08,12,39,13.30
2012,06,08,12,40,13.30
2012,06,08,12,41,13.30
2012,06,08,12,42,13.30
2012,06,08,12,43,13.40
2012,06,08,12,44,13.40
2012,06,08,12,45,13.50
2012,06,08,12,46,13.50
2012,06,08,12,47,13.60
2012,06,08,12,48,13.70
2012,06,08,12,49,13.70
2012,06,08,12,50,13.80
2012,06,08,12,51,13.90
2012,06,08,12,52,13.90
2012,06,08,12,53,14.00
2012,06,08,12,54,14.00
2012,06,08,12,55,14.10
2012,06,08,12,56,14.10
2012,06,08,12,57,14.10
2012,06,08,12,58,14.10
2012,06,08,12,59,14.10
2012,06,08,13,00,14.00
2012,06,08,13,01,14.00
2012,06,08,13,02,14.00
2012,06,08,13,03,14.00
2012,06,08,13,04,13.90
2012,06,08,13,05,13.90
2012,06,08,13,06,13.90
2012,06,08,13,07,13.90
2012,06,08,13,08,13.90
2012,06,08,13,09,13.90
2012,06,08,13,10,13.90
2012,06,08,13,11,13.90
2012,06,08,13,12,13.90
2012,06,08,13,13,13.90
2012,06,08,13,14,13.90
2012,06,08,13,15,13.90
2012,06,08,13,16,13.90
2012,06,08,13,17,13.90
2012,06,08,13,18,13.90
2012,06,08,13,19,13.90
2012,06,08,13,20,14.00
2012,06,08,13,21,14.00
2012,06,08,13,22,14.10
2012,06,08,13,23,14.10
2012,06,08,13,24,14.20
2012,06,08,13,25,14.20
2012,06,08,13,26,14.30
2012,06,08,13,27,14.40
2012,06,08,13,28,14.40
2012,06,08,13,29,14.50
2012,06,08,13,30,14.50
2012,06,08,13,31,14.50
2012,06,08,13,32,14.40
2012,06,08,13,33,14.40
2012,06,08,13,34,14.30
2012,06,08,13,35,14.20
2012,06,08,13,36,14.20
2012,06,08,13,37,14.10
2012,06,08,13,38,14.00
2012,06,08,13,39,14.00
2012,06,08,13,40,13.90
2012,06,08,13,41,13.90
2012,06,08,13,42,13.80
2012,06,08,13,43,13.80
2012,06,08,13,44,13.80
2012,06,08,13,45,13.80
2012,06,08,13,46,13.80
2012,06,08,13,47,13.80
2012,06,08,13,48,13.80
2012,06,08,13,49,13.80
2012,06,08,13,50,13.80
2012,06,08,13,51,13.70
2012,06,08,13,52,13.70
2012,06,08,13,53,13.70
2012,06,08,13,54,13.70
2012,06,08,13,55,13.70
2012,06,08,13,56,13.70
2012,06,08,13,57,13.70
2012,06,08,13,58,13.70
2012,06,08,13,59,13.70
2012,06,08,14,00,13.70
2012,06,08,14,01,13.70
2012,06,08,14,02,13.70
2012,06,08,14,03,13.70
2012,06,08,14,04,13.70
2012,06,08,14,05,13.70
2012,06,08,14,06,13.70
2012,06,08,14,07,13.70
2012,06,08,14,08,13.70
2012,06,08,14,09,13.70
2012,06,08,14,10,13.70
2012,06,08,14,11,13.70
2012,06,08,14,12,13.70
2012,06,08,14,13,13.70
2012,06,08,14,14,13.70
2012,06,08,14,15,13.70
2012,06,08,14,16,13.70
2012,06,08,14,17,13.80
2012,06,08,14,18,13.80
2012,06,08,14,19,13.90
2012,06,08,14,20,14.00
2012,06,08,14,21,14.00
2012,06,08,14,22,14.10
2012,06,08,14,23,14.10
2012,06,08,14,24,14.20
2012,06,08,14,25,14.20
2012,06,08,14,26,14.30
2012,06,08,14,27,14.30
2012,06,08,14,28,14.30
2012,06,08,14,29,14.20
2012,06,08,14,30,14.10
2012,06,08,14,31,14.10
2012,06,08,14,32,14.00
2012,06,08,14,33,13.90
2012,06,08,14,34,13.90
2012,06,08,14,35,13.80
2012,06,08,14,36,13.80
2012,06,08,14,37,13.70
2012,06,08,14,38,13.70
2012,06,08,14,39,13.60
2012,06,08,14,40,13.60
2012,06,08,14,41,13.60
2012,06,08,14,42,13.60
2012,06,08,14,43,13.60
2012,06,08,14,44,13.60
2012,06,08,14,45,13.60
2012,06,08,14,46,13.60
2012,06,08,14,47,13.60
2012,06,08,14,48,13.60
2012,06,08,14,49,13.60
2012,06,08,14,50,13.60
2012,06,08,14,51,13.60
2012,06,08,14,52,13.60
2012,06,08,14,53,13.70
2012,06,08,14,54,13.70
2012,06,08,14,55,13.80
2012,06,08,14,56,13.90
2012,06,08,14,57,14.00
2012,06,08,14,58,14.00
2012,06,08,14,59,14.10
2012,06,08,15,00,14.10
2012,06,08,15,01,14.10
2012,06,08,15,02,14.10
2012,06,08,15,03,14.20
2012,06,08,15,04,14.20
2012,06,08,15,05,14.30
2012,06,08,15,06,14.30
2012,06,08,15,07,14.30
2012,06,08,15,08,14.30
2012,06,08,15,09,14.30
2012,06,08,15,10,14.20
2012,06,08,15,11,14.20
2012,06,08,15,12,14.20
2012,06,08,15,13,14.20
2012,06,08,15,14,14.10
2012,06,08,15,15,14.00
2012,06,08,15,16,14.00
2012,06,08,15,17,13.90
2012,06,08,15,18,13.90
2012,06,08,15,19,13.80
2012,06,08,15,20,13.80
2012,06,08,15,21,13.80
2012,06,08,15,22,13.80
2012,06,08,15,23,13.80
2012,06,08,15,24,13.80
2012,06,08,15,25,13.80
2012,06,08,15,26,13.80
2012,06,08,15,27,13.80
2012,06,08,15,28,13.80
2012,06,08,15,29,13.90
2012,06,08,15,30,13.90
2012,06,08,15,31,13.90
2012,06,08,15,32,13.90
2012,06,08,15,33,13.90
2012,06,08,15,34,14.00
2012,06,08,15,35,14.00
2012,06,08,15,36,14.10
2012,06,08,15,37,14.10
2012,06,08,15,38,14.10
2012,06,08,15,39,14.20
2012,06,08,15,40,14.20
2012,06,08,15,41,14.30
2012,06,08,15,42,14.30
2012,06,08,15,43,14.30
2012,06,08,15,44,14.30
2012,06,08,15,45,14.30
2012,06,08,15,46,14.40
2012,06,08,15,47,14.40
2012,06,08,15,48,14.40
2012,06,08,15,49,14.50
2012,06,08,15,50,14.50
2012,06,08,15,51,14.60
2012,06,08,15,52,14.60
2012,06,08,15,53,14.70
2012,06,08,15,54,14.70
2012,06,08,15,55,14.80
2012,06,08,15,56,14.80
2012,06,08,15,57,14.80
2012,06,08,15,58,14.90
2012,06,08,15,59,14.90
2012,06,08,16,00,15.00
2012,06,08,16,01,15.00
2012,06,08,16,02,15.10
2012,06,08,16,03,15.10
2012,06,08,16,04,15.10
2012,06,08,16,05,15.10
2012,06,08,16,06,15.00
2012,06,08,16,07,15.00
2012,06,08,16,08,15.00
2012,06,08,16,09,14.90
2012,06,08,16,10,14.90
2012,06,08,16,11,14.80
2012,06,08,16,12,14.70
2012,06,08,16,13,14.60
2012,06,08,16,14,14.60
2012,06,08,16,15,14.60
2012,06,08,16,16,14.60
2012,06,08,16,17,14.60
2012,06,08,16,18,14.60
2012,06,08,16,19,14.70
2012,06,08,16,20,14.70
2012,06,08,16,21,14.70
2012,06,08,16,22,14.70
2012,06,08,16,23,14.70
2012,06,08,16,24,14.80
2012,06,08,16,25,14.80
2012,06,08,16,26,14.80
2012,06,08,16,27,14.80
2012,06,08,16,28,14.80
2012,06,08,16,29,14.80
2012,06,08,16,30,14.70
2012,06,08,16,31,14.70
2012,06,08,16,32,14.80
2012,06,08,16,33,14.80
2012,06,08,16,34,14.90
2012,06,08,16,35,14.90
2012,06,08,16,36,15.00
2012,06,08,16,37,15.10
2012,06,08,16,38,15.20
2012,06,08,16,39,15.20
2012,06,08,16,40,15.20
2012,06,08,16,41,15.20
2012,06,08,16,42,15.20
2012,06,08,16,43,15.10
2012,06,08,16,44,15.10
2012,06,08,16,45,15.00
2012,06,08,16,46,15.00
2012,06,08,16,47,14.90
2012,06,08,16,48,14.80
2012,06,08,16,49,14.80
2012,06,08,16,50,14.80
2012,06,08,16,51,14.80
2012,06,08,16,52,14.80
2012,06,08,16,53,14.80
2012,06,08,16,54,14.80
2012,06,08,16,55,14.90
2012,06,08,16,56,14.90
2012,06,08,16,57,14.90
2012,06,08,16,58,15.00
2012,06,08,16,59,15.00
2012,06,08,17,00,14.90
2012,06,08,17,01,14.90
2012,06,08,17,02,14.80
2012,06,08,17,03,14.80
2012,06,08,17,04,14.90
2012,06,08,17,05,14.80
2012,06,08,17,06,14.80
2012,06,08,17,07,14.80
2012,06,08,17,08,14.80
2012,06,08,17,09,14.90
2012,06,08,17,10,14.90
2012,06,08,17,11,14.90
2012,06,08,17,12,15.00
2012,06,08,17,13,15.00
2012,06,08,17,14,15.00
2012,06,08,17,15,15.00
2012,06,08,17,16,15.00
2012,06,08,17,17,15.00
2012,06,08,17,18,15.00
2012,06,08,17,19,15.00
2012,06,08,17,20,15.00
2012,06,08,17,21,15.00
2012,06,08,17,22,15.10
2012,06,08,17,23,15.20
2012,06,08,17,24,15.20
2012,06,08,17,25,15.30
2012,06,08,17,26,15.30
2012,06,08,17,27,15.30
2012,06,08,17,28,15.30
2012,06,08,17,29,15.20
2012,06,08,17,30,15.20
2012,06,08,17,31,15.10
2012,06,08,17,32,15.10
2012,06,08,17,33,15.10
2012,06,08,17,34,15.10
2012,06,08,17,35,15.10
2012,06,08,17,36,15.10